Location: Bas-Clignon
(44.2000°N, 6.6333°E)
Time: 13:32:11
(UTC+00:00)

Cosmos 2058 Rocket - Pass Details

Date: 03 February 2023
Orbit: 610 x 637 km, 82.5° (Epoch: 19 March)

Event Time Altitude Azimuth Distance (km) Brightness Sun altitude
Rises 18:01:47 0° 357° (N) 2,897 6.4 -13.9°
Reaches altitude 10° 18:04:06 10° 4° (N) 1,990 5.5 -14.3°
Maximum altitude 18:08:19 44° 77° (ENE) 865 3.3 -15.1°
Drops below altitude 10° 18:12:32 10° 150° (SSE) 1,991 5.4 -15.8°
Sets 18:14:51 0° 157° (SSE) 2,897 6.3 -16.2°
